When you browse on this site, cookies collect data to enhance your experience and personalize the content and advertising you see.
Visit our Privacy Policy to learn more. By continuing to use the site, you agree to this use of cookies and data.
  • In Schweiz
  • Länderverzeichnis
  • Für 7 Tage
  • Wassertemperatur
  • Satellitenkarten
  • Wetterkarte
  • Widgets
  • user-avatar
    Anmelden

    Stündliche Wetter Barra

    Heute, 20 März, Mittwoch

    Zeit Temperatur Niederschläge Wind Luftdruck Luftfeuchtigkeit
    00:00 +25°C° 0.7 mm 2 m/S 746 mmHg 96%
    01:00 +25°C° 0.7 mm 2 m/S 746 mmHg 96%
    02:00 +25°C° 0.6 mm 1 m/S 746 mmHg 97%
    03:00 +25°C° 0.6 mm 1 m/S 746 mmHg 97%
    04:00 +25°C° 0 mm 2 m/S 745 mmHg 97%
    05:00 +25°C° 0.7 mm 1 m/S 745 mmHg 97%
    06:00 +25°C° 0.7 mm 1 m/S 746 mmHg 96%
    07:00 +25°C° 0.7 mm 1 m/S 746 mmHg 95%
    08:00 +27°C° 0.5 mm 1 m/S 746 mmHg 88%
    09:00 +28°C° 0.5 mm 1 m/S 746 mmHg 82%
    10:00 +30°C° 0.5 mm 1 m/S 747 mmHg 75%
    11:00 +30°C° 0.7 mm 2 m/S 746 mmHg 73%
    12:00 +31°C° 0.7 mm 2 m/S 746 mmHg 71%
    13:00 +31°C° 0.7 mm 2 m/S 746 mmHg 69%
    14:00 +31°C° 0.4 mm 3 m/S 746 mmHg 69%
    15:00 +30°C° 0.4 mm 3 m/S 746 mmHg 69%
    16:00 +30°C° 0.4 mm 3 m/S 745 mmHg 69%
    17:00 +29°C° 0.1 mm 2 m/S 746 mmHg 75%
    18:00 +27°C° 0.1 mm 2 m/S 746 mmHg 81%
    19:00 +26°C° 0.1 mm 2 m/S 746 mmHg 87%
    20:00 +26°C° 0 mm 2 m/S 747 mmHg 87%
    21:00 +26°C° 0 mm 2 m/S 747 mmHg 88%
    22:00 +25°C° 0 mm 1 m/S 747 mmHg 89%
    23:00 +25°C° 0.1 mm 1 m/S 747 mmHg 90%

    Morgen, 21 März, Donnerstag

    Zeit Temperatur Niederschläge Wind Luftdruck Luftfeuchtigkeit
    00:00 +25°C° 0.1 mm 1 m/S 747 mmHg 90%
    01:00 +25°C° 0.1 mm 2 m/S 746 mmHg 91%
    02:00 +25°C° 0.1 mm 1 m/S 746 mmHg 92%
    03:00 +25°C° 0.1 mm 1 m/S 745 mmHg 92%
    04:00 +24°C° 0.1 mm 1 m/S 745 mmHg 93%
    05:00 +25°C° 0.1 mm 1 m/S 746 mmHg 93%
    06:00 +25°C° 0.1 mm 1 m/S 746 mmHg 93%
    07:00 +25°C° 0.1 mm 2 m/S 746 mmHg 93%
    08:00 +26°C° 0.4 mm 2 m/S 747 mmHg 90%
    09:00 +27°C° 0.4 mm 2 m/S 747 mmHg 87%
    10:00 +28°C° 0.4 mm 3 m/S 748 mmHg 84%
    11:00 +28°C° 0.5 mm 2 m/S 747 mmHg 84%
    12:00 +28°C° 0.5 mm 2 m/S 747 mmHg 83%
    13:00 +28°C° 0.5 mm 2 m/S 746 mmHg 83%
    14:00 +28°C° 0.3 mm 2 m/S 746 mmHg 83%
    15:00 +28°C° 0.3 mm 2 m/S 745 mmHg 82%
    16:00 +28°C° 0.3 mm 2 m/S 745 mmHg 82%
    17:00 +27°C° 0.2 mm 1 m/S 745 mmHg 85%
    18:00 +26°C° 0.2 mm 1 m/S 746 mmHg 89%
    19:00 +25°C° 0.2 mm 1 m/S 746 mmHg 92%
    20:00 +25°C° 0.8 mm 1 m/S 747 mmHg 93%
    21:00 +25°C° 0.8 mm 1 m/S 747 mmHg 95%
    22:00 +23°C° 0.8 mm 0 m/S 748 mmHg 96%
    23:00 +25°C° 0.5 mm 1 m/S 747 mmHg 96%

    übermorgen, 22 März, Freitag

    Zeit Temperatur Niederschläge Wind Luftdruck Luftfeuchtigkeit
    00:00 +25°C° 0.5 mm 1 m/S 747 mmHg 97%
    01:00 +24°C° 0.5 mm 1 m/S 747 mmHg 97%
    02:00 +24°C° 0.3 mm 1 m/S 746 mmHg 97%
    03:00 +24°C° 0.3 mm 1 m/S 746 mmHg 97%
    04:00 +24°C° 0.3 mm 2 m/S 745 mmHg 97%
    05:00 +24°C° 0.4 mm 2 m/S 746 mmHg 96%
    06:00 +25°C° 0.4 mm 2 m/S 746 mmHg 96%
    07:00 +25°C° 0.4 mm 2 m/S 747 mmHg 95%
    08:00 +25°C° 1.2 mm 2 m/S 747 mmHg 94%
    09:00 +26°C° 1.2 mm 1 m/S 748 mmHg 93%
    10:00 +26°C° 1.2 mm 1 m/S 748 mmHg 92%
    11:00 +27°C° 0.8 mm 1 m/S 748 mmHg 88%
    12:00 +27°C° 0.8 mm 1 m/S 747 mmHg 85%
    13:00 +28°C° 0.8 mm 1 m/S 747 mmHg 81%
    14:00 +28°C° 0.4 mm 1 m/S 746 mmHg 80%
    15:00 +28°C° 0.4 mm 1 m/S 746 mmHg 78%
    16:00 +28°C° 0.4 mm 1 m/S 745 mmHg 77%
    17:00 +27°C° 0.2 mm 1 m/S 746 mmHg 81%
    18:00 +26°C° 0.2 mm 1 m/S 746 mmHg 86%
    19:00 +26°C° 0.2 mm 1 m/S 746 mmHg 90%
    20:00 +25°C° 0.2 mm 1 m/S 747 mmHg 92%
    21:00 +25°C° 0.2 mm 1 m/S 747 mmHg 93%
    22:00 +25°C° 0.2 mm 1 m/S 748 mmHg 94%
    23:00 +25°C° 0.9 mm 1 m/S 747 mmHg 95%

    23 März, Samstag

    Zeit Temperatur Niederschläge Wind Luftdruck Luftfeuchtigkeit
    00:00 +25°C° 0.9 mm 1 m/S 747 mmHg 96%
    01:00 +25°C° 0.9 mm 1 m/S 746 mmHg 97%
    02:00 +25°C° 0.4 mm 1 m/S 746 mmHg 97%
    03:00 +25°C° 0.4 mm 1 m/S 746 mmHg 96%
    04:00 +25°C° 0.4 mm 1 m/S 745 mmHg 96%
    05:00 +25°C° 0.2 mm 1 m/S 746 mmHg 96%
    06:00 +25°C° 0.2 mm 1 m/S 746 mmHg 96%
    07:00 +25°C° 0.2 mm 1 m/S 747 mmHg 96%
    08:00 +27°C° 0.3 mm 1 m/S 747 mmHg 90%
    09:00 +28°C° 0.3 mm 1 m/S 748 mmHg 85%
    10:00 +29°C° 0.3 mm 2 m/S 748 mmHg 79%
    11:00 +30°C° 0.4 mm 2 m/S 747 mmHg 77%
    12:00 +30°C° 0.4 mm 2 m/S 747 mmHg 74%
    13:00 +31°C° 0.4 mm 3 m/S 747 mmHg 72%
    14:00 +30°C° 0.1 mm 3 m/S 746 mmHg 72%
    15:00 +30°C° 0.1 mm 3 m/S 746 mmHg 72%
    16:00 +30°C° 0.1 mm 3 m/S 746 mmHg 73%
    17:00 +29°C° 0.2 mm 3 m/S 746 mmHg 79%
    18:00 +27°C° 0.2 mm 2 m/S 747 mmHg 85%
    19:00 +26°C° 0.2 mm 2 m/S 747 mmHg 92%
    20:00 +26°C° 0.3 mm 1 m/S 748 mmHg 93%
    21:00 +26°C° 0.3 mm 1 m/S 748 mmHg 94%
    22:00 +25°C° 0.3 mm 1 m/S 749 mmHg 95%
    23:00 +25°C° 0.1 mm 1 m/S 748 mmHg 95%

    24 März, Sonntag

    Zeit Temperatur Niederschläge Wind Luftdruck Luftfeuchtigkeit
    00:00 +25°C° 0.1 mm 1 m/S 748 mmHg 96%
    01:00 +25°C° 0.1 mm 1 m/S 748 mmHg 96%
    02:00 +25°C° 0.1 mm 1 m/S 747 mmHg 96%
    03:00 +25°C° 0.1 mm 1 m/S 747 mmHg 96%
    04:00 +25°C° 0.1 mm 2 m/S 747 mmHg 96%
    05:00 +25°C° 0.2 mm 2 m/S 747 mmHg 96%
    06:00 +25°C° 0.2 mm 2 m/S 748 mmHg 95%
    07:00 +25°C° 0.2 mm 2 m/S 748 mmHg 95%
    08:00 +27°C° 0.4 mm 2 m/S 748 mmHg 89%
    09:00 +28°C° 0.4 mm 2 m/S 749 mmHg 84%
    10:00 +29°C° 0.4 mm 2 m/S 749 mmHg 78%
    11:00 +30°C° 0.5 mm 2 m/S 748 mmHg 75%
    12:00 +31°C° 0.5 mm 3 m/S 748 mmHg 72%
    13:00 +31°C° 0.5 mm 3 m/S 747 mmHg 69%
    14:00 +31°C° 0.4 mm 3 m/S 747 mmHg 71%
    15:00 +31°C° 0.4 mm 3 m/S 747 mmHg 72%
    16:00 +30°C° 0.4 mm 2 m/S 746 mmHg 73%
    17:00 +29°C° 0.8 mm 2 m/S 747 mmHg 79%
    18:00 +28°C° 0.8 mm 2 m/S 747 mmHg 85%
    19:00 +26°C° 0.8 mm 2 m/S 748 mmHg 91%
    20:00 +26°C° 0.7 mm 2 m/S 748 mmHg 93%
    21:00 +26°C° 0.7 mm 1 m/S 749 mmHg 94%
    22:00 +26°C° 0.7 mm 1 m/S 749 mmHg 95%
    23:00 +26°C° 0.5 mm 1 m/S 749 mmHg 96%

    25 März, Montag

    Zeit Temperatur Niederschläge Wind Luftdruck Luftfeuchtigkeit
    00:00 +25°C° 0.5 mm 1 m/S 748 mmHg 96%
    01:00 +25°C° 0.5 mm 1 m/S 748 mmHg 97%
    02:00 +25°C° 0.1 mm 1 m/S 748 mmHg 97%
    03:00 +25°C° 0.1 mm 1 m/S 748 mmHg 97%
    04:00 +25°C° 0.1 mm 1 m/S 748 mmHg 97%
    05:00 +25°C° 0.2 mm 2 m/S 748 mmHg 97%
    06:00 +25°C° 0.2 mm 2 m/S 749 mmHg 97%
    07:00 +25°C° 0.2 mm 2 m/S 749 mmHg 96%
    08:00 +27°C° 0.5 mm 2 m/S 749 mmHg 89%
    09:00 +29°C° 0.5 mm 2 m/S 749 mmHg 82%
    10:00 +30°C° 0.5 mm 2 m/S 749 mmHg 76%
    11:00 +31°C° 0.5 mm 2 m/S 749 mmHg 73%
    12:00 +31°C° 0.5 mm 2 m/S 748 mmHg 70%
    13:00 +32°C° 0.5 mm 2 m/S 748 mmHg 67%
    14:00 +31°C° 0.6 mm 2 m/S 747 mmHg 69%
    15:00 +31°C° 0.6 mm 2 m/S 747 mmHg 71%
    16:00 +31°C° 0.6 mm 2 m/S 747 mmHg 72%
    17:00 +29°C° 0.4 mm 2 m/S 747 mmHg 79%
    18:00 +28°C° 0.4 mm 2 m/S 748 mmHg 85%
    19:00 +27°C° 0.4 mm 2 m/S 748 mmHg 92%
    20:00 +26°C° 0.5 mm 2 m/S 749 mmHg 93%
    21:00 +26°C° 0.5 mm 1 m/S 749 mmHg 95%
    22:00 +26°C° 0.5 mm 1 m/S 750 mmHg 96%
    23:00 +26°C° 0.4 mm 1 m/S 749 mmHg 96%
    Mehr zeigen